This is the latest recevied weather packets stored in our database for station/object EA3KZ-1. If no packets are shown the sender has not sent any weather packets the latest 10 day(s).
| Time | Temp. | Humidity | Pressure | Rain* | Wind** | Luminosity | Snow |
|---|---|---|---|---|---|---|---|
| 1777551055 | 21.67° C | 62% | 1012.6 hPa | 0 mm | - | - | - |
| 1777550453 | 21.67° C | 59% | 1012.6 hPa | 0 mm | - | - | - |
| 1777549850 | 21.67° C | 58% | 1012.9 hPa | 0 mm | - | - | - |
| 1777549247 | 21.11° C | 61% | 1012.8 hPa | 0 mm | - | - | - |
| 1777548645 | 21.11° C | 59% | 1012.7 hPa | 0 mm | - | - | - |
| 1777548042 | 21.11° C | 59% | 1012.9 hPa | 0 mm | - | - | - |
| 1777547440 | 22.22° C | 57% | 1012.8 hPa | 0 mm | - | - | - |
| 1777546837 | 22.22° C | 56% | 1013 hPa | 0 mm | - | - | - |
| 1777546234 | 21.11° C | 56% | 1012.9 hPa | 0 mm | - | - | - |
| 1777545632 | 20° C | 54% | 1012.9 hPa | 0 mm | - | - | - |
| 1777545029 | 21.11° C | 51% | 1012.9 hPa | 0 mm | - | - | - |
| 1777544427 | 21.11° C | 52% | 1012.8 hPa | 0 mm | - | - | - |
| 1777543824 | 20° C | 54% | 1012.8 hPa | 0 mm | - | - | - |
| 1777543221 | 20.56° C | 53% | 1012.8 hPa | 0 mm | - | - | - |
| 1777542618 | 20° C | 55% | 1012.7 hPa | 0 mm | - | - | - |
| 1777542016 | 19.44° C | 55% | 1012.6 hPa | 0 mm | - | - | - |
| 1777541474 | 18.89° C | 58% | 1012.5 hPa | 0 mm | - | - | - |
| 1777540871 | 18.89° C | 57% | 1012.4 hPa | 0 mm | - | - | - |
| 1777540268 | 18.89° C | 55% | 1012.4 hPa | 0 mm | - | - | - |
| 1777539666 | 19.44° C | 53% | 1012.1 hPa | 0 mm | - | - | - |
| 1777539063 | 18.89° C | 51% | 1012 hPa | 0 mm | - | - | - |
| 1777538460 | 18.89° C | 53% | 1012.1 hPa | 0 mm | - | - | - |
| 1777537858 | 18.89° C | 55% | 1012 hPa | 0 mm | - | - | - |
| 1777537255 | 18.89° C | 57% | 1011.9 hPa | 0 mm | - | - | - |
| 1777536653 | 18.33° C | 60% | 1012 hPa | 0 mm | - | - | - |
* Rain latest hour (hover to see other rain measurements)
** Current wind speed in m/s (hover to see current wind gust speed)